Location: Addison Town Hall
(32.9525°N, 96.8158°W)
Time: 00:59:51
(UTC+00:00)

PSLV R/B - Pass Details

Date: 08 March 2021
Orbit: 566 x 599 km, 98.2° (Epoch: 10 April)

Event Time Altitude Azimuth Distance (km) Brightness Sun altitude
Rises 12:10:19 0° 160° (SSE) 2,825 7.7 -8.3°
Reaches altitude 10° 12:12:29 10° 158° (SSE) 1,925 6.9 -7.9°
Maximum altitude 12:16:38 66° 76° (ENE) 650 4.5 -7.0°
Drops below altitude 10° 12:20:46 10° 354° (N) 1,924 6.5 -6.2°
Sets 12:22:56 0° 352° (N) 2,823 7.3 -5.7°
